Wind_Speed
19 20 20 21 21 22 23 24 25 26 26 27 27 27 28 27 27 28 29 30 32 34 36 38 40 42 44 46 47 48 48 48 50 51 52 53 55 53 51 49 48 46 46 45 44 43 42 42 41 40 38 37 36 34 32 29 25 21 21 24 22 20 19 20 19 15 15 13 10 9 6 5 5 6 8 10 11 13 16 17 18 22 27 29 28 28 29 29
21 22 23 23 24 25 25 26 27 28 29 30 30 31 32 32 31 31 30 31 32 33 35 37 40 42 44 46 47 49 49 49 49 51 53 54 56 55 53 51 50 48 47 46 45 45 45 44 43 41 40 38 37 36 34 31 28 24 24 25 23 21 20 21 20 16 15 14 10 9 8 7 6 5 7 9 9 11 13 14 16 22 26 28 28 27 28 29
23 24 25 26 27 27 28 29 30 30 31 32 33 34 35 35 36 35 35 34 33 34 35 37 39 41 43 45 47 49 50 50 50 51 53 56 57 56 54 53 52 50 49 47 47 47 47 45 44 42 41 39 38 37 35 33 30 27 26 25 24 23 20 19 18 17 17 14 11 11 9 7 5 5 6 8 8 9 11 11 16 21 25 27 27 26 27 28
25 26 27 28 29 29 30 31 32 33 34 35 36 37 37 38 39 39 39 39 38 36 36 37 39 41 43 45 47 48 50 51 51 52 53 56 58 57 55 55 54 52 51 50 49 49 48 46 45 44 43 41 40 38 37 35 32 30 28 24 24 23 21 19 16 17 16 13 14 12 8 5 4 5 6 7 7 8 9 10 15 20 24 26 26 26 26 27
26 27 28 29 30 31 32 33 34 35 36 37 39 40 41 41 42 42 42 43 43 41 40 39 39 41 43 45 46 48 50 50 51 53 54 56 58 58 56 56 56 55 53 52 51 50 49 48 46 45 44 43 41 39 38 37 35 32 31 28 24 23 23 21 19 19 17 14 14 14 10 6 5 6 6 7 6 7 7 9 15 20 23 24 25 25 24 26
28 29 29 30 31 32 33 34 35 36 38 39 41 43 44 45 45 46 45 46 46 46 46 44 43 42 43 45 47 48 49 49 51 54 56 57 58 58 57 57 57 56 55 54 52 51 50 49 47 46 46 44 43 41 40 39 36 32 31 30 26 25 24 22 22 22 20 17 17 16 14 10 8 8 7 7 6 7 7 7 14 19 21 21 24 24 23 25
30 31 32 32 33 34 35 35 36 37 39 41 43 45 46 48 49 49 49 49 49 49 50 49 49 47 46 46 47 49 48 48 52 55 57 58 58 58 58 59 59 58 57 55 54 52 51 50 49 48 47 46 44 43 41 39 38 33 30 30 28 27 27 24 23 22 21 21 21 20 18 15 11 10 8 7 7 6 6 6 13 17 19 19 22 23 22 23
32 33 34 34 35 36 36 37 38 40 41 43 45 47 49 51 52 53 53 53 53 53 53 53 53 52 51 48 48 50 48 49 53 54 56 59 59 59 59 60 60 59 59 57 55 54 52 51 50 49 48 47 46 45 43 40 39 36 32 30 29 29 29 29 28 26 24 23 22 22 19 16 13 12 10 8 7 6 5 5 11 15 16 17 20 23 21 21
33 34 35 36 36 37 38 39 40 42 44 46 48 49 51 53 54 55 56 56 56 56 56 56 56 56 55 53 51 49 48 51 53 54 57 59 59 60 60 61 61 60 59 58 57 55 54 52 51 51 50 49 48 46 44 41 40 39 35 31 30 31 33 34 33 30 29 27 24 22 19 16 14 13 12 9 7 5 5 2 8 12 13 14 17 21 21 19
34 35 36 36 37 38 39 40 42 44 46 48 50 52 54 55 56 57 58 58 58 59 59 59 59 60 59 58 53 49 50 54 54 54 57 58 59 61 61 61 61 61 60 59 58 57 55 53 52 52 52 50 49 47 45 43 41 40 37 34 32 33 35 35 33 32 31 28 25 23 20 16 15 16 14 11 9 6 5 3 5 10 11 12 14 19 21 18
35 36 37 37 38 39 40 42 43 46 49 51 54 55 57 58 59 59 59 59 59 59 60 60 61 62 62 61 56 52 53 55 55 56 58 59 60 61 62 62 62 62 61 60 59 58 56 55 55 54 53 51 50 48 46 44 42 41 39 36 35 35 36 33 30 30 30 27 25 23 22 19 17 17 15 12 11 8 6 5 4 8 9 10 12 16 19 18
36 37 38 39 40 41 42 43 45 48 51 54 57 59 60 61 61 61 60 60 59 59 59 60 62 63 64 63 59 57 57 55 56 59 59 59 60 62 63 64 63 62 62 62 60 59 58 57 56 55 53 52 51 49 47 45 43 41 41 37 35 35 36 33 29 29 29 28 27 23 23 23 21 20 17 14 13 9 6 5 4 6 9 8 9 12 17 18
37 38 39 40 41 42 43 45 47 50 54 57 60 62 63 63 62 62 61 61 60 59 59 60 61 63 64 65 63 61 58 56 58 61 61 60 60 62 64 65 64 63 63 63 61 60 60 59 58 57 56 54 53 51 49 47 44 42 42 39 36 35 35 32 30 31 30 28 25 23 24 25 23 22 19 17 16 13 8 6 6 7 8 6 7 9 14 17
39 40 41 42 42 44 45 46 49 53 57 60 63 64 65 64 64 63 63 63 62 60 59 59 61 62 64 65 65 64 61 59 60 61 63 62 61 63 64 65 65 63 64 64 62 62 62 61 60 59 58 55 54 53 50 48 45 43 43 40 37 37 36 33 30 30 30 28 24 22 24 25 25 24 21 19 19 17 12 8 7 8 7 5 6 7 10 15
41 42 42 43 44 45 46 48 52 56 59 62 64 66 66 66 66 66 66 65 62 58 56 57 59 61 64 65 66 66 63 61 61 61 64 64 63 63 65 65 65 64 65 65 65 65 64 63 63 62 59 57 56 54 51 50 47 44 43 40 37 38 38 36 32 29 28 28 26 24 24 26 26 25 24 21 21 20 17 11 8 9 8 5 4 5 8 12
43 43 44 44 45 45 47 50 54 58 61 64 66 67 68 68 68 69 68 64 57 53 51 53 56 60 63 65 67 67 65 62 62 62 64 65 65 64 65 66 66 66 66 67 67 66 65 64 64 62 60 59 57 55 53 51 48 45 44 42 40 39 37 35 33 31 31 30 28 26 26 28 28 27 26 23 22 22 20 15 10 11 10 6 3 4 5 10
44 45 45 45 45 46 48 52 56 60 63 66 67 68 69 70 71 70 64 57 50 46 45 48 52 57 62 65 67 68 67 64 64 63 64 66 67 66 67 66 66 67 67 68 68 66 66 65 64 63 62 61 59 57 55 54 52 49 44 42 40 38 36 35 33 32 34 35 31 27 28 29 27 27 26 24 23 22 21 17 12 13 11 5 3 3 3 7
46 46 46 46 46 47 50 54 58 62 65 67 69 70 71 72 72 66 56 48 43 39 39 42 48 54 61 65 68 69 68 66 65 64 65 67 68 68 68 67 67 68 69 69 68 67 66 65 65 65 63 62 60 59 58 57 55 52 47 42 38 36 36 34 35 34 34 38 33 28 30 29 27 26 25 24 24 23 22 18 13 13 11 6 4 4 2 5
47 47 46 46 46 48 52 56 60 63 66 68 70 72 73 73 68 57 46 40 37 35 35 38 43 51 59 65 68 69 69 68 66 66 66 67 69 70 69 69 69 69 70 70 69 68 67 66 66 65 63 61 61 60 61 59 56 53 49 45 40 38 38 34 33 34 35 37 34 31 32 30 29 29 27 25 26 24 23 20 15 14 11 6 6 6 3 2
48 47 46 46 47 50 54 58 61 64 67 69 71 73 74 72 61 48 39 34 32 31 31 33 38 46 55 63 68 71 71 70 68 67 67 68 70 72 72 71 70 69 70 70 70 69 68 67 66 65 65 64 64 63 63 61 58 55 50 46 42 41 42 38 34 33 34 37 34 34 35 32 32 33 31 30 29 24 23 21 18 16 12 9 9 8 5 1
48 47 46 46 48 51 56 59 62 65 67 70 71 73 74 67 53 41 35 30 27 27 27 29 34 41 50 60 67 71 73 72 71 70 70 70 71 73 74 73 71 71 71 71 70 69 69 68 68 68 68 68 67 65 64 63 61 59 53 47 41 40 44 44 41 36 34 35 34 34 36 34 34 35 34 34 31 25 23 22 20 19 17 14 13 10 7 4
48 47 46 47 49 53 57 60 63 65 68 70 72 73 72 61 46 36 32 27 24 23 23 25 30 37 46 56 65 71 74 74 73 73 72 72 72 74 75 74 73 72 72 71 70 69 69 69 70 72 71 70 69 67 66 65 63 62 58 50 41 41 44 44 44 41 37 37 34 33 35 35 35 35 34 33 32 28 25 23 23 23 21 18 16 13 9 6
48 46 46 47 50 54 58 61 63 66 68 71 73 74 69 56 42 33 29 25 22 21 20 22 26 33 41 51 62 70 74 75 76 75 74 74 73 73 74 75 75 73 71 71 71 71 71 70 73 75 72 70 69 69 69 67 65 63 62 58 48 46 46 42 44 45 42 43 40 35 36 36 34 31 29 28 29 30 28 26 26 25 24 21 18 16 13 9
47 46 45 48 52 55 59 62 64 66 69 71 73 73 67 53 39 31 27 24 21 19 18 19 22 29 37 47 58 67 73 76 77 77 76 75 73 74 76 78 77 74 72 72 73 73 73 74 76 76 73 72 72 72 71 69 68 65 65 66 58 52 49 41 41 46 46 46 45 40 38 37 34 29 26 25 26 30 30 28 27 26 25 23 21 19 16 12
46 45 45 48 52 56 60 62 64 67 69 72 73 73 66 51 38 30 26 22 19 17 16 17 19 25 33 42 52 62 71 76 78 78 77 75 75 76 78 78 75 74 74 75 75 74 75 76 77 74 74 76 75 74 73 71 71 69 67 69 64 57 55 47 40 41 43 43 44 44 41 38 34 29 28 26 27 30 29 27 27 26 26 24 22 20 17 14
45 44 45 48 52 57 60 62 64 67 69 72 74 72 64 50 38 30 25 21 17 15 15 15 17 21 28 37 47 58 68 75 78 79 78 77 77 76 75 76 76 77 78 77 76 76 76 76 74 74 75 77 76 75 75 74 74 72 68 68 66 62 60 55 45 39 41 43 43 44 44 41 35 32 29 26 27 29 28 27 27 28 27 25 23 22 19 17
44 43 45 49 53 57 60 62 64 66 69 72 73 71 62 49 38 31 25 20 15 12 13 13 15 19 24 32 42 53 63 72 78 80 79 79 78 76 76 78 78 78 77 76 75 76 75 73 74 77 79 78 77 77 78 76 76 75 71 69 69 68 65 60 53 46 44 44 44 45 46 43 39 35 32 27 27 28 28 28 29 30 29 27 25 24 21 19
43 43 45 49 52 57 60 61 63 66 69 71 73 71 62 48 37 30 25 19 14 11 10 11 13 16 21 28 37 48 59 69 76 79 80 80 79 79 79 79 78 77 77 77 78 77 74 73 77 80 80 78 78 79 79 79 78 75 75 73 70 69 68 65 61 56 52 46 45 48 47 42 38 36 34 31 30 31 33 32 32 33 31 29 27 26 24 22
41 42 45 49 52 56 59 61 62 65 68 71 72 70 61 48 37 30 25 19 14 10 8 9 11 13 18 25 32 42 53 65 73 78 80 80 80 80 79 78 77 76 77 79 80 78 76 78 80 81 81 80 81 81 80 80 78 76 77 77 73 70 70 71 66 62 59 52 47 50 50 43 37 36 35 35 35 35 37 36 35 34 33 32 30 27 26 25
41 41 44 48 52 56 59 60 61 64 67 70 72 70 61 49 37 29 24 19 15 11 8 7 8 11 15 21 28 37 48 60 70 77 80 81 81 81 78 77 75 75 77 80 80 77 77 78 78 79 81 80 82 82 80 79 77 77 79 79 78 74 71 71 70 64 60 56 52 51 52 49 42 37 36 38 37 37 38 38 37 34 34 35 33 30 29 28
40 41 44 48 51 55 58 59 60 63 66 69 71 70 61 49 38 29 23 19 15 13 9 7 7 8 12 17 24 33 43 54 66 75 80 82 83 82 79 77 76 77 79 80 79 76 74 75 76 79 80 80 82 81 79 79 78 80 81 80 80 77 71 70 72 68 61 58 58 52 50 53 48 39 38 40 40 40 42 42 40 37 35 36 36 33 32 31
39 40 44 48 51 54 57 59 59 62 65 68 70 70 62 50 38 30 23 19 15 13 12 10 9 8 10 15 21 30 39 50 61 72 79 83 84 82 81 81 80 81 81 81 79 76 77 80 80 80 79 80 81 79 79 80 80 80 80 80 80 78 75 72 72 71 65 61 61 57 51 53 51 43 39 42 42 42 44 45 44 41 38 37 38 36 34 33
38 40 44 47 50 53 56 58 59 61 64 66 69 70 64 52 39 30 23 18 16 15 14 14 14 12 11 13 18 26 35 46 57 68 76 81 83 83 84 84 83 82 82 81 80 78 80 83 83 81 79 80 81 79 81 82 81 81 81 80 80 78 77 74 71 72 70 65 62 61 58 55 51 46 42 42 43 44 45 45 45 44 41 40 40 39 36 34
38 40 44 47 49 52 55 57 58 60 62 65 69 70 66 54 40 30 24 19 16 16 15 17 18 18 16 15 16 22 32 42 53 63 73 79 83 85 85 85 84 83 81 81 81 80 83 85 83 80 79 80 81 82 85 86 84 83 82 82 81 79 78 76 74 73 72 70 66 64 65 61 54 49 45 45 44 46 48 47 47 48 48 46 45 42 39 36
37 40 43 46 49 51 54 57 58 59 61 64 67 70 68 58 42 31 24 20 18 17 16 17 20 21 21 19 17 21 29 39 49 59 68 77 83 87 88 87 87 86 84 82 81 81 84 86 84 83 82 82 83 85 86 85 84 84 83 83 81 81 80 78 78 76 73 74 71 65 66 65 61 55 52 50 46 49 53 52 51 52 52 52 48 44 42 39
37 39 43 46 48 51 53 56 58 59 61 63 66 69 70 62 47 33 25 21 20 19 18 18 20 22 21 20 21 23 27 35 45 56 66 76 84 88 90 90 90 89 87 85 83 82 84 86 86 85 84 83 84 86 86 84 85 85 84 83 83 83 82 82 82 79 76 76 74 70 67 65 65 63 60 57 52 51 55 53 51 53 53 53 49 45 44 42
36 39 43 46 48 50 52 55 57 59 61 63 65 68 70 66 52 37 27 23 21 21 21 20 21 22 20 19 23 26 27 33 42 53 64 75 83 88 89 90 90 88 86 85 84 83 85 88 87 84 83 83 84 84 84 85 87 87 85 84 84 84 83 83 84 82 78 77 77 75 70 66 67 66 65 65 60 55 56 54 52 54 53 52 50 47 45 44
36 39 42 45 48 50 52 54 56 58 60 62 64 66 69 68 59 43 31 25 24 24 24 24 23 22 21 18 22 27 29 33 40 51 62 72 80 86 88 89 89 87 85 83 81 81 84 87 85 83 84 84 83 83 83 85 87 86 85 85 85 85 84 82 84 84 80 80 79 78 74 70 71 68 66 70 66 60 60 57 52 54 53 50 49 48 46 45
35 38 42 45 47 50 52 54 55 58 60 62 63 65 67 69 64 50 36 28 26 26 27 28 27 24 22 19 20 26 31 34 39 47 57 67 76 83 87 89 90 90 88 86 83 81 82 84 82 83 86 84 83 83 82 84 85 84 85 86 84 85 84 82 84 85 84 82 80 80 79 74 71 68 66 70 68 62 63 63 55 52 53 53 51 51 50 49
35 38 41 44 47 50 52 53 55 57 59 61 62 64 66 68 67 57 42 32 28 28 29 30 30 27 23 20 19 23 31 36 39 44 52 61 72 80 85 89 90 91 91 89 85 82 82 84 83 84 86 85 84 83 81 82 84 84 85 85 84 84 83 83 84 84 85 85 82 82 81 77 73 69 67 68 67 63 65 68 61 53 53 55 54 53 52 51
35 37 40 43 47 50 52 53 55 57 59 60 62 63 65 67 68 62 49 37 30 28 28 29 30 28 23 21 20 21 28 37 40 42 48 56 67 76 82 88 90 91 92 90 87 84 85 85 83 83 85 85 84 83 82 83 85 85 84 84 86 87 86 85 85 84 84 86 86 84 83 80 77 75 73 70 68 65 67 71 67 58 56 57 56 55 54 52
35 37 40 43 47 50 52 53 55 56 58 60 61 63 65 66 68 66 56 43 33 29 29 29 29 28 24 21 21 21 25 34 40 42 45 52 61 71 79 85 90 91 92 90 88 87 87 86 83 82 84 85 86 86 85 86 86 85 85 86 88 88 87 86 86 85 84 84 86 87 87 84 81 80 80 76 71 69 69 71 69 63 59 59 57 55 55 54
36 39 41 44 47 49 52 53 55 56 57 59 60 62 64 66 67 67 62 50 37 31 30 29 30 28 25 21 19 20 23 30 38 42 45 48 56 65 74 82 88 91 91 91 89 88 88 87 84 82 85 88 88 89 88 87 86 84 84 87 87 87 87 87 86 87 86 86 87 89 89 88 85 84 85 81 76 74 72 70 68 63 60 61 60 56 56 56
37 39 42 44 47 49 52 53 55 56 57 59 60 61 63 65 66 67 64 56 43 33 30 30 30 29 26 22 18 19 22 27 34 41 45 47 51 59 69 78 84 89 91 92 91 90 91 89 85 84 87 89 88 89 89 87 84 83 83 85 85 85 87 88 88 88 88 88 90 90 89 90 88 86 86 84 80 78 76 72 69 65 61 62 64 59 57 58
38 40 42 45 47 49 51 53 55 56 57 58 59 61 62 64 66 66 65 61 50 38 32 31 31 30 27 23 19 17 20 25 31 39 45 48 50 54 63 73 80 86 92 94 93 93 92 91 88 87 89 90 89 89 89 87 85 84 83 83 85 87 88 89 89 89 88 89 90 89 89 90 90 89 87 84 81 80 79 76 72 69 63 63 66 64 60 60
39 41 43 45 47 49 51 53 55 56 57 58 59 60 61 62 64 65 65 63 55 43 34 32 32 31 29 24 20 17 18 23 28 35 43 48 50 52 59 68 76 84 90 93 93 94 93 92 90 89 89 90 90 89 89 88 86 85 84 84 87 88 88 89 89 89 89 88 87 87 89 89 89 89 86 82 80 80 82 80 75 72 68 64 66 67 65 63
40 42 44 46 48 49 50 52 54 56 57 58 58 59 61 62 63 64 65 64 59 48 38 33 33 33 31 25 21 18 16 20 26 32 39 46 50 51 55 63 72 80 87 90 92 93 93 93 92 91 89 89 87 87 88 87 87 88 89 88 88 86 85 87 87 88 88 87 87 89 91 88 85 85 83 82 84 84 84 84 78 74 73 68 66 68 68 66
41 43 45 47 48 49 51 52 53 55 57 58 58 59 60 61 62 63 64 64 61 53 42 35 33 33 32 28 22 18 15 16 23 29 36 43 49 52 54 60 68 76 83 87 91 92 93 93 93 91 89 89 87 86 87 88 88 90 91 88 85 84 86 87 88 89 89 88 89 90 90 90 85 81 79 80 86 88 87 87 83 76 74 71 69 70 69 68
42 43 45 47 48 49 50 51 53 54 56 57 58 59 59 60 61 62 63 63 62 56 46 38 34 33 33 30 24 19 15 14 19 26 33 41 47 52 55 59 65 73 79 85 89 91 93 94 93 92 90 88 87 86 87 88 88 89 88 86 85 85 87 89 90 91 88 88 90 88 87 87 82 79 79 78 83 90 90 88 87 81 76 72 71 71 70 69
43 44 45 47 48 49 50 51 52 54 55 57 57 58 59 59 60 61 62 62 62 58 49 40 35 34 33 31 26 21 16 14 16 22 30 38 45 52 57 59 63 70 76 82 86 90 93 94 93 92 91 89 88 87 87 88 87 88 88 88 88 88 89 89 89 88 86 87 90 88 87 85 78 77 83 83 82 89 91 90 90 86 80 75 71 72 72 70
45 45 45 46 47 48 49 51 52 53 54 55 56 57 58 58 59 60 61 61 61 58 51 42 37 34 34 32 28 22 17 14 14 19 26 34 42 51 57 60 62 67 73 78 84 88 91 93 93 92 91 91 90 88 88 89 89 89 89 89 90 90 89 89 87 86 86 88 89 88 87 85 82 82 87 86 83 85 88 90 93 91 86 80 73 72 73 71
46 45 45 46 46 47 48 50 52 53 54 55 55 56 56 56 57 59 60 60 60 59 52 44 37 35 34 33 30 24 19 15 13 16 22 31 39 47 55 60 61 63 68 75 82 86 89 91 91 91 93 94 93 91 90 89 89 90 90 89 91 90 88 88 88 87 87 86 85 85 84 84 86 89 91 90 87 84 83 87 92 93 90 85 78 72 71 73
Wind_Direction
299 298 297 296 296 295 295 294 293 293 292 291 289 287 282 277 270 264 260 257 256 254 252 249 245 241 238 236 234 232 230 230 229 229 229 229 228 225 222 221 219 218 216 214 212 211 211 210 209 208 208 206 205 203 202 201 198 197 196 202 208 207 207 213 223 220 202 206 217 217 220 253 280 301 316 326 326 335 354 6 16 22 25 26 21 21 35 42
295 294 294 293 293 292 292 291 291 290 290 289 288 287 286 284 280 274 268 261 257 255 254 252 249 246 241 238 235 233 231 229 229 229 229 228 228 226 223 222 220 218 216 214 213 212 211 211 209 207 207 206 205 204 202 202 198 197 198 203 209 210 211 213 222 226 216 217 218 219 240 255 264 290 304 316 326 332 349 9 24 26 26 25 23 22 33 43
292 291 292 292 292 291 291 290 290 289 288 287 286 285 284 283 282 280 277 271 264 257 254 252 251 249 246 241 237 235 233 230 229 230 229 228 227 226 225 223 221 219 216 214 214 213 211 210 209 207 207 206 205 204 203 202 198 198 200 206 210 211 213 213 218 221 218 224 219 224 251 246 242 279 286 298 321 332 345 18 28 28 28 24 24 22 31 42
289 289 289 290 290 290 290 290 290 289 287 286 285 283 282 281 281 280 279 277 273 266 259 253 251 250 248 245 241 237 234 231 230 230 229 229 228 226 225 224 222 220 217 215 214 213 212 210 209 208 207 207 206 204 204 202 199 197 197 205 210 213 216 212 218 221 214 219 222 227 240 228 238 269 271 283 306 324 339 26 30 29 30 23 23 22 29 42
287 288 288 289 289 289 289 290 290 289 288 287 285 284 282 281 280 279 278 277 276 273 268 260 253 249 248 247 243 240 236 233 231 230 228 228 228 226 224 224 223 221 218 216 214 213 212 210 209 208 208 207 206 205 205 203 201 198 196 201 203 209 216 210 216 226 220 217 226 232 228 224 247 258 262 273 287 308 324 26 33 30 30 22 22 22 28 41
288 288 289 289 290 289 289 289 289 289 288 287 286 285 284 283 282 280 279 277 275 274 272 268 261 252 247 245 244 242 237 235 233 230 228 227 227 226 224 224 223 222 219 217 215 213 212 210 209 209 208 208 206 205 205 203 202 201 198 200 199 207 215 210 212 221 222 220 229 238 232 232 244 249 256 260 268 291 306 23 34 30 28 21 22 21 27 41
291 290 290 290 290 290 289 288 288 288 287 286 285 285 284 283 283 282 280 279 276 274 272 270 267 260 251 244 242 241 238 237 235 231 229 228 226 226 225 223 223 222 220 218 215 213 211 211 209 209 208 208 207 205 204 202 202 202 201 200 200 209 215 213 214 217 221 223 229 238 235 234 240 243 247 251 256 275 298 17 31 25 24 21 22 20 25 40
292 292 291 290 290 290 289 288 287 287 286 286 285 284 283 282 282 281 280 279 277 275 272 270 268 265 258 249 241 239 237 237 235 232 230 227 225 225 225 224 222 222 221 219 216 214 211 211 210 210 209 208 208 206 204 202 202 203 202 201 202 210 214 215 219 219 221 222 221 226 227 231 243 240 236 244 244 257 293 5 26 15 18 22 22 20 22 37
292 291 291 291 291 291 290 289 287 287 287 286 285 284 283 282 281 280 279 278 276 274 272 270 268 265 262 255 245 237 234 235 234 232 230 227 225 225 224 224 222 221 221 219 217 214 212 210 210 210 209 208 208 206 205 202 201 201 201 201 203 210 215 214 217 217 219 220 218 222 225 232 242 232 225 231 229 239 272 322 21 5 10 21 22 21 21 34
292 291 291 291 292 293 292 290 289 288 288 288 287 286 284 283 282 281 279 277 275 273 271 268 266 264 262 257 249 238 234 233 232 231 230 227 225 224 223 222 222 221 220 219 217 215 212 210 210 211 209 208 208 207 205 202 200 200 199 201 203 211 218 215 213 213 216 218 217 224 227 228 230 222 220 220 216 218 236 252 5 353 359 19 22 22 19 29
293 293 292 293 294 295 294 292 291 291 291 290 289 289 288 287 285 284 282 279 276 272 269 265 262 260 259 257 251 243 237 231 229 229 229 227 224 224 223 221 221 220 219 218 217 215 213 211 210 210 209 208 208 207 206 203 200 199 199 202 203 210 220 218 212 210 212 209 207 215 217 214 216 218 222 218 212 209 214 237 324 340 348 13 20 23 20 23
296 296 296 296 296 297 297 295 294 294 294 294 293 292 291 291 290 288 286 282 278 273 268 263 259 256 254 254 250 245 238 230 227 227 227 226 224 223 222 221 219 219 219 217 216 215 213 212 211 210 209 208 207 207 206 203 200 198 199 201 203 210 219 220 215 210 207 202 198 203 206 210 217 220 225 222 212 205 203 229 266 324 335 359 16 23 22 21
301 300 300 300 300 300 300 298 297 297 297 297 296 296 296 295 294 293 290 286 281 275 268 262 256 252 250 249 248 244 238 231 227 225 224 224 223 223 221 220 218 217 218 217 215 215 213 213 211 209 208 207 206 206 205 203 200 198 199 199 201 209 216 217 216 213 209 203 199 200 203 213 223 223 225 224 215 209 205 220 244 290 318 345 9 20 24 20
305 305 304 304 303 303 302 301 300 300 300 300 300 300 300 300 299 297 294 290 284 277 268 260 253 248 245 243 243 241 237 231 227 222 222 222 221 222 221 219 218 216 216 216 214 214 213 212 211 209 207 206 205 205 204 203 200 198 199 198 201 209 213 213 213 214 211 204 202 201 205 220 228 224 224 222 216 214 213 218 239 271 297 324 351 14 27 21
309 309 308 308 307 306 305 304 303 303 303 303 303 304 305 305 304 302 299 294 287 278 267 257 249 244 240 238 238 238 235 230 226 222 220 219 219 220 220 218 217 215 215 215 214 213 212 211 210 209 206 205 205 204 203 203 199 198 200 198 200 206 212 213 214 216 211 202 201 199 203 222 231 228 225 221 218 217 218 223 239 261 268 280 322 358 31 26
312 312 312 311 309 309 308 307 306 306 307 307 308 308 309 309 308 306 303 297 288 277 265 253 245 239 235 233 233 233 232 228 225 221 218 217 217 218 219 218 215 214 213 213 213 212 212 211 211 209 206 206 204 202 202 202 199 198 200 200 200 204 210 212 212 215 212 200 199 198 201 216 228 231 229 221 219 220 221 224 234 249 245 242 292 333 31 32
314 314 314 313 312 312 311 311 310 311 311 311 312 313 313 314 313 310 305 297 287 275 262 249 239 233 230 229 228 228 228 226 223 219 216 215 215 216 217 217 215 213 212 213 212 211 212 211 211 209 207 205 203 201 201 201 200 197 197 199 201 205 211 211 208 209 209 201 197 196 200 210 220 231 232 223 219 221 222 220 227 240 229 211 263 296 23 38
316 316 317 316 315 315 315 315 315 315 315 315 316 317 318 318 316 312 305 296 286 273 260 247 236 228 224 223 223 223 224 223 220 218 215 213 213 214 215 216 214 212 211 211 211 211 211 211 210 209 207 206 203 201 200 201 200 197 196 196 198 202 206 208 206 207 208 203 197 193 199 206 212 223 229 226 222 221 220 215 220 231 215 197 253 272 325 40
318 319 319 318 318 319 319 319 319 319 318 318 319 321 322 322 319 314 305 295 284 273 259 246 235 226 220 218 218 219 220 220 218 216 214 211 211 212 213 214 213 212 210 210 210 210 210 210 210 208 207 205 204 202 200 200 199 196 196 196 199 200 199 199 203 208 209 206 201 195 198 206 210 216 220 224 226 222 218 214 216 223 210 211 252 260 276 31
320 321 321 321 322 323 323 323 322 322 321 322 323 324 326 326 322 315 306 296 284 272 259 247 236 225 219 215 214 214 215 216 215 214 212 211 210 210 211 212 212 211 210 209 209 209 208 208 209 208 206 204 203 202 201 200 197 195 194 195 201 203 201 201 202 207 209 207 204 198 199 206 211 214 213 218 225 221 215 214 216 220 221 235 249 249 257 271
322 323 323 323 325 326 326 326 325 325 324 325 327 328 330 329 324 317 309 298 285 272 259 246 236 226 219 213 211 211 211 212 212 212 211 210 209 209 209 210 211 210 209 208 207 207 208 208 207 207 206 203 203 202 201 200 196 193 191 192 199 201 200 202 201 203 206 205 203 199 200 205 210 215 213 217 225 221 213 215 218 220 223 235 241 237 242 244
323 325 325 326 327 329 329 329 328 327 327 328 330 333 334 333 327 320 312 303 291 275 260 246 234 227 219 213 210 209 209 209 210 210 209 208 208 207 208 209 209 209 208 207 207 206 206 207 207 207 205 204 203 201 200 200 196 193 190 190 196 197 194 196 199 201 203 203 202 199 200 204 210 217 221 223 227 223 216 217 221 221 219 227 232 228 228 231
325 326 327 328 330 331 331 331 330 330 330 332 334 337 338 335 330 324 317 308 296 281 264 247 233 225 220 214 209 208 207 207 208 208 208 207 206 206 207 208 209 208 207 207 206 205 204 205 207 207 205 203 203 202 200 199 196 194 192 192 194 195 193 196 201 203 207 208 206 200 200 205 210 218 225 227 226 224 222 220 222 222 217 221 225 221 219 215
327 328 328 330 332 333 333 333 332 332 333 335 338 340 341 338 334 329 322 314 302 286 270 252 235 224 219 214 210 207 206 206 206 207 207 206 205 205 206 206 207 207 206 207 206 205 204 205 207 206 204 203 202 201 201 199 196 194 195 195 195 195 192 193 199 203 208 212 211 205 201 205 208 212 218 219 217 219 220 221 223 223 220 222 223 221 218 212
328 329 330 332 334 335 335 334 334 335 336 338 341 343 343 340 337 334 327 318 306 292 276 257 239 225 219 214 210 207 206 205 205 206 206 205 205 205 205 205 205 205 206 206 206 205 204 205 206 205 204 204 202 201 200 199 197 195 196 198 196 195 191 188 191 199 203 207 209 206 201 201 206 210 213 214 212 213 215 221 224 225 224 223 222 221 220 216
328 329 331 334 335 336 336 336 337 338 339 342 344 346 345 341 339 337 331 323 312 296 279 261 244 228 219 214 210 207 206 205 204 205 205 205 206 205 204 204 204 205 206 206 205 205 205 205 205 205 205 205 203 202 200 200 199 196 196 197 197 196 193 188 187 191 197 201 204 203 200 199 201 205 206 207 209 213 218 224 227 228 226 224 221 220 219 218
329 330 333 335 336 337 338 338 339 340 342 345 347 348 346 343 340 338 334 329 320 302 283 267 249 232 220 214 210 207 206 204 204 205 205 205 205 205 205 205 204 204 206 206 206 207 205 203 204 205 206 205 204 204 201 200 200 198 197 198 199 199 196 192 190 190 193 197 199 199 198 198 199 203 202 202 210 219 223 225 228 230 228 224 221 219 217 216
329 331 334 336 337 339 340 340 341 342 345 348 349 349 348 344 341 339 336 332 324 309 290 272 254 237 223 216 211 208 205 205 204 204 205 205 205 205 205 204 203 203 204 205 206 206 204 203 204 205 205 204 205 205 203 201 200 198 198 199 199 200 198 194 194 197 197 196 196 197 195 195 197 199 196 197 205 215 221 223 228 230 229 225 222 219 216 215
330 332 334 337 338 340 341 342 342 345 347 350 351 351 349 345 341 339 336 332 327 317 301 277 260 243 228 218 212 208 206 205 204 204 205 205 205 206 206 204 202 202 204 206 206 204 203 204 204 204 204 203 204 205 204 203 200 199 200 200 200 201 201 197 196 199 200 199 198 197 194 194 193 192 193 196 202 212 221 224 225 228 228 225 222 220 217 215
330 332 335 337 339 341 343 343 344 346 349 351 353 353 350 345 342 339 335 331 328 324 314 284 263 249 234 221 213 209 206 204 204 204 204 205 206 206 206 205 203 204 206 206 206 204 205 207 206 205 204 204 205 205 204 204 201 200 201 201 200 201 201 199 197 198 200 202 202 198 195 196 195 191 193 197 200 207 219 223 223 225 228 225 222 220 218 216
330 333 335 338 340 342 343 344 345 348 350 353 355 354 351 346 342 339 334 329 327 324 320 303 274 253 240 227 217 210 206 204 204 204 204 205 206 206 206 206 205 205 207 206 205 203 206 208 208 207 206 205 206 204 204 204 202 202 202 201 202 201 200 200 199 199 201 205 206 201 197 201 201 197 196 198 198 203 214 222 224 224 226 225 222 220 219 218
330 333 336 338 340 342 344 346 347 349 351 354 356 356 353 347 342 339 333 328 323 320 317 310 295 268 247 234 222 212 207 205 204 204 204 205 205 205 206 206 206 206 206 205 203 202 205 207 207 207 205 206 206 204 205 205 204 204 203 203 203 201 201 201 199 200 203 205 207 205 204 204 204 202 200 201 202 204 210 218 221 220 222 222 223 224 223 222
330 333 336 338 340 342 344 346 347 349 352 355 357 358 356 350 343 338 332 326 320 316 316 311 303 288 265 245 230 218 210 206 205 204 204 205 205 205 206 207 207 208 206 204 201 201 205 207 207 206 205 205 205 203 205 205 204 205 204 204 204 202 201 201 200 201 203 204 204 206 208 206 204 205 205 203 204 204 205 210 214 216 218 220 223 227 227 227
330 334 336 337 340 342 345 347 348 350 352 355 358 359 358 353 344 337 331 326 320 316 313 305 297 289 276 257 237 225 216 209 206 205 204 205 205 205 207 207 208 209 208 205 202 202 205 207 207 206 206 205 204 203 205 204 204 204 204 204 204 203 202 200 201 203 203 202 202 204 207 206 204 205 207 206 207 206 203 205 209 211 217 221 222 226 229 231
330 334 335 337 340 342 345 347 348 350 352 355 358 359 360 356 348 338 331 326 320 314 307 296 288 282 276 265 246 231 222 213 208 206 204 204 205 205 206 207 208 209 208 206 203 203 205 206 206 206 206 205 204 204 205 204 204 205 205 204 204 203 202 200 201 204 203 202 202 203 206 206 206 208 209 207 206 206 204 206 211 213 217 221 222 223 228 231
330 333 335 337 339 342 345 347 348 350 352 355 358 360 1 358 352 341 332 325 318 312 307 298 290 283 275 265 252 238 225 217 211 207 205 205 205 205 205 206 207 208 207 205 204 203 206 206 206 206 206 206 206 205 204 203 204 205 205 204 204 204 203 200 201 203 203 202 203 205 205 206 209 211 212 210 206 205 206 208 214 216 216 218 221 222 224 228
330 333 334 336 339 341 344 347 348 350 351 354 357 359 1 360 355 345 333 326 321 318 317 311 304 295 281 261 248 240 230 220 215 210 207 206 206 206 206 207 208 209 208 207 204 204 206 207 205 205 207 208 208 207 204 204 205 205 204 205 205 205 204 202 202 203 203 202 203 205 206 207 211 213 214 214 211 208 207 209 212 215 215 215 219 220 221 225
329 332 333 335 338 340 343 346 348 350 351 353 356 359 0 1 359 351 338 331 327 326 326 322 315 306 292 267 244 237 231 223 218 214 210 208 207 206 206 207 207 209 210 209 207 206 208 208 204 205 208 208 209 208 205 206 206 205 205 205 205 206 205 204 204 204 204 204 204 204 205 208 211 213 214 215 215 212 209 209 209 211 213 214 215 217 218 223
329 332 333 335 337 339 342 345 348 349 351 352 355 357 359 1 0 355 344 335 332 331 331 327 322 313 300 280 249 233 229 225 221 218 213 210 208 207 207 207 207 208 209 210 209 207 209 209 205 206 208 208 209 209 207 208 207 206 207 207 206 207 206 205 206 206 206 206 206 205 206 207 208 211 214 213 214 215 211 209 208 207 210 214 215 216 217 220
328 331 333 334 336 339 342 344 347 349 350 352 353 355 358 360 1 358 350 340 335 334 333 331 327 319 306 289 264 237 228 225 222 219 216 212 210 208 207 207 208 208 208 209 208 207 210 209 205 207 209 208 210 209 208 209 208 206 207 207 207 208 207 207 208 208 207 207 207 207 208 208 208 210 213 210 211 215 212 209 211 209 206 210 215 217 218 219
327 331 332 334 336 338 341 343 346 348 349 350 352 354 356 358 0 360 355 345 337 334 333 333 330 322 310 294 276 249 231 226 223 219 217 214 211 209 207 208 208 209 209 209 207 207 210 210 205 207 209 209 210 210 209 210 208 206 207 207 207 207 206 207 209 209 209 209 209 209 209 209 209 210 212 210 209 213 212 208 211 211 205 207 212 214 217 220
327 330 332 334 336 337 339 342 344 346 348 349 351 353 354 357 359 360 358 350 340 335 333 334 334 325 312 297 281 260 238 228 224 220 217 214 212 209 208 208 209 209 209 209 208 207 209 210 206 206 209 209 210 210 209 210 209 206 206 208 208 208 207 207 208 209 210 210 211 212 212 211 210 211 212 211 209 211 211 208 210 211 207 206 209 211 213 217
327 330 332 333 335 336 338 340 342 345 346 347 349 351 353 355 357 359 358 354 344 335 333 335 336 329 316 300 284 265 245 230 224 221 218 215 212 209 209 209 209 209 209 210 209 208 209 210 207 206 209 210 210 210 210 210 210 207 207 209 209 209 208 208 209 209 209 210 211 213 213 212 213 214 213 212 210 209 210 209 209 211 208 205 207 210 210 211
327 329 331 332 334 335 337 339 341 343 345 346 348 350 352 353 355 357 358 355 349 339 334 334 336 334 323 308 292 270 249 234 224 220 217 216 213 209 208 209 209 209 210 210 209 209 210 210 208 207 209 210 210 211 211 211 210 209 209 210 209 210 210 209 210 210 210 211 212 212 213 213 213 215 215 215 213 211 209 209 209 210 209 206 206 208 206 206
327 328 330 331 333 334 336 337 339 341 343 344 346 348 350 351 353 355 356 356 352 343 335 334 336 337 330 316 301 279 255 237 226 220 216 215 213 209 207 208 209 209 210 210 209 209 210 210 209 207 209 211 209 210 212 211 210 210 210 211 210 210 210 210 210 211 211 212 213 213 214 214 214 215 215 215 215 213 211 210 210 212 211 209 207 206 205 205
326 327 328 330 331 333 334 335 337 338 340 343 344 346 348 350 351 353 355 355 353 347 338 334 335 338 335 323 309 291 263 241 229 221 216 213 212 210 207 206 208 209 210 210 210 210 210 210 210 209 210 211 210 210 211 211 210 211 210 211 212 211 211 211 211 212 212 213 214 215 215 215 216 217 216 215 216 215 213 211 211 212 211 210 208 206 205 207
324 325 326 328 329 331 332 334 335 337 338 341 343 344 346 348 349 351 353 354 353 349 341 335 335 338 338 330 316 301 276 248 233 224 217 214 211 210 207 205 207 209 209 209 210 211 211 211 211 210 210 211 210 210 212 212 211 212 211 211 212 212 212 213 213 213 213 213 214 216 216 215 216 217 217 217 217 217 215 213 212 212 210 208 207 205 206 208
323 324 324 326 328 329 330 332 333 335 336 338 341 342 344 346 347 349 351 352 353 351 344 336 335 337 339 335 324 309 288 257 238 226 219 215 211 210 207 205 206 208 209 209 209 210 211 212 212 211 211 212 211 211 212 212 212 213 214 212 212 212 212 213 213 213 213 213 214 216 217 216 216 218 219 218 218 218 217 215 214 213 210 207 206 205 206 208
321 322 322 324 326 327 328 330 332 333 335 336 339 340 342 344 345 347 349 351 351 350 346 338 334 337 340 338 330 317 299 269 243 229 221 215 210 208 208 206 205 207 208 208 208 209 211 212 212 212 212 212 211 211 213 214 213 214 215 214 213 214 214 214 214 213 213 214 215 216 218 218 217 219 221 220 219 219 219 216 215 214 212 209 207 205 206 208
319 320 321 322 324 325 326 328 329 331 333 335 337 338 340 342 344 345 347 349 350 349 346 340 335 335 340 340 334 324 307 282 253 233 224 218 211 207 207 207 206 206 207 207 207 209 209 211 212 212 212 213 212 212 213 214 214 215 215 214 214 215 216 216 216 214 213 215 215 215 217 217 216 219 222 221 220 220 220 218 216 215 214 211 209 207 207 209
317 319 319 320 322 324 324 326 327 329 331 333 335 337 339 341 342 343 345 347 349 349 345 341 335 334 338 340 337 328 313 291 261 238 226 220 214 208 207 208 207 207 207 206 207 208 209 209 210 211 212 213 213 213 214 214 215 215 215 215 215 216 217 217 217 215 215 216 216 216 216 217 217 219 221 221 219 219 220 219 217 216 216 214 211 210 209 209
314 315 316 318 320 322 322 323 324 326 329 331 333 335 338 340 341 342 344 346 348 348 345 341 336 333 336 339 338 331 320 301 271 243 227 221 217 212 208 208 208 207 207 207 207 207 208 209 209 210 212 213 213 213 214 215 216 216 215 215 216 217 218 219 218 217 216 217 217 217 217 218 219 220 221 221 220 220 220 220 219 218 217 216 214 212 212 212
Height
10937 10937 10936 10935 10935 10934 10934 10933 10933 10932 10932 10931 10931 10931 10930 10930 10931 10931 10931 10931 10932 10932 10932 10933 10934 10936 10937 10938 10940 10942 10944 10947 10949 10952 10953 10954 10957 10962 10967 10970 10974 10978 10982 10987 10990 10994 10996 10998 11001 11004 11007 11011 11014 11017 11020 11023 11025 11027 11028 11028 11028 11029 11030 11030 11029 11030 11032 11032 11032 11033 11034 11034 11034 11033 11032 11032 11032 11031 11030 11029 11027 11025 11021 11019 11017 11014 11010 11006
10935 10934 10933 10933 10932 10932 10931 10931 10930 10929 10929 10928 10928 10927 10927 10926 10926 10926 10927 10927 10928 10928 10928 10929 10930 10931 10932 10934 10936 10937 10940 10942 10945 10947 10948 10950 10953 10958 10963 10967 10970 10974 10978 10983 10987 10989 10991 10994 10998 11002 11005 11009 11012 11015 11018 11020 11023 11025 11026 11027 11027 11028 11028 11028 11028 11029 11030 11031 11032 11033 11034 11034 11034 11034 11033 11033 11032 11031 11031 11030 11028 11026 11023 11020 11019 11016 11012 11008
10933 10932 10931 10930 10929 10928 10928 10927 10927 10926 10925 10925 10924 10923 10923 10922 10922 10922 10922 10922 10923 10924 10924 10925 10925 10926 10927 10929 10931 10933 10935 10938 10940 10942 10943 10945 10948 10954 10959 10963 10966 10970 10974 10979 10982 10984 10988 10992 10996 11000 11003 11007 11010 11013 11016 11018 11021 11023 11025 11025 11026 11027 11027 11027 11028 11029 11030 11029 11030 11032 11033 11034 11034 11034 11034 11033 11033 11032 11032 11031 11029 11027 11024 11022 11020 11018 11014 11010
10931 10929 10928 10927 10926 10925 10924 10923 10922 10922 10921 10920 10920 10919 10918 10918 10918 10917 10917 10917 10917 10918 10919 10920 10921 10921 10922 10923 10926 10928 10930 10933 10935 10936 10939 10941 10944 10949 10955 10958 10962 10966 10970 10974 10977 10981 10985 10990 10994 10997 11001 11004 11008 11011 11014 11016 11018 11020 11022 11024 11026 11026 11026 11029 11029 11029 11030 11029 11029 11031 11032 11033 11033 11034 11034 11033 11033 11032 11032 11031 11030 11027 11025 11023 11022 11020 11016 11012
10928 10927 10926 10924 10923 10922 10921 10919 10918 10917 10916 10915 10915 10914 10913 10913 10912 10912 10912 10912 10911 10912 10913 10914 10915 10916 10917 10918 10920 10922 10924 10929 10930 10931 10934 10936 10939 10945 10950 10953 10957 10961 10965 10969 10973 10978 10982 10987 10991 10994 10998 11001 11005 11009 11012 11014 11016 11018 11019 11022 11025 11026 11026 11029 11030 11028 11029 11029 11029 11030 11032 11032 11033 11033 11033 11034 11033 11032 11032 11032 11030 11028 11026 11025 11023 11021 11018 11015
10925 10924 10922 10921 10920 10918 10917 10916 10914 10913 10911 10910 10909 10908 10908 10907 10906 10906 10906 10906 10906 10906 10906 10907 10908 10909 10911 10912 10914 10915 10920 10923 10923 10925 10929 10930 10935 10940 10945 10948 10952 10956 10960 10965 10969 10974 10979 10984 10988 10992 10995 10999 11003 11007 11010 11012 11014 11017 11019 11021 11025 11025 11025 11029 11029 11027 11029 11030 11028 11029 11031 11032 11033 11033 11033 11034 11033 11033 11033 11032 11031 11028 11027 11026 11024 11023 11020 11017
10921 10920 10919 10917 10916 10915 10913 10911 10910 10908 10907 10905 10904 10903 10901 10901 10900 10899 10899 10899 10899 10899 10899 10900 10900 10902 10903 10906 10908 10909 10914 10917 10916 10920 10923 10925 10930 10935 10939 10942 10946 10951 10955 10960 10965 10970 10975 10980 10985 10988 10991 10996 11000 11003 11007 11010 11013 11016 11018 11021 11024 11023 11025 11027 11027 11027 11029 11029 11028 11028 11030 11032 11032 11033 11033 11034 11034 11033 11033 11033 11031 11029 11028 11027 11026 11024 11022 11019
10918 10916 10915 10913 10912 10910 10909 10907 10905 10903 10902 10900 10898 10897 10895 10894 10893 10892 10892 10891 10891 10892 10892 10892 10892 10893 10894 10898 10900 10903 10909 10910 10910 10914 10917 10920 10925 10928 10932 10936 10941 10946 10950 10956 10961 10967 10972 10977 10981 10984 10988 10993 10996 11000 11004 11008 11011 11014 11017 11020 11022 11022 11024 11025 11024 11026 11028 11027 11026 11027 11029 11031 11032 11033 11033 11034 11033 11033 11033 11033 11031 11030 11029 11029 11027 11026 11024 11021
10914 10912 10910 10909 10907 10905 10904 10902 10900 10898 10896 10894 10892 10890 10889 10887 10886 10885 10884 10883 10883 10883 10883 10884 10884 10884 10885 10888 10891 10897 10903 10901 10903 10908 10909 10914 10919 10921 10925 10930 10936 10941 10946 10952 10957 10962 10967 10972 10977 10980 10985 10989 10993 10997 11001 11006 11009 11012 11016 11018 11021 11021 11020 11022 11022 11024 11025 11025 11026 11027 11028 11030 11031 11032 11033 11033 11033 11033 11033 11033 11032 11031 11030 11029 11028 11027 11025 11023
10910 10908 10906 10904 10902 10900 10898 10896 10894 10892 10889 10887 10885 10883 10881 10880 10878 10877 10876 10875 10874 10874 10874 10874 10874 10874 10875 10877 10882 10891 10894 10893 10897 10901 10902 10907 10912 10914 10918 10924 10930 10935 10941 10947 10952 10958 10963 10968 10972 10975 10980 10985 10990 10994 10998 11003 11007 11010 11014 11016 11018 11018 11016 11019 11021 11022 11023 11023 11025 11026 11027 11029 11030 11031 11032 11032 11033 11033 11033 11033 11032 11031 11031 11030 11029 11028 11027 11025
10906 10904 10902 10900 10897 10895 10893 10890 10888 10885 10882 10880 10877 10875 10873 10871 10869 10867 10866 10865 10863 10863 10863 10863 10863 10864 10865 10866 10873 10881 10882 10884 10890 10892 10894 10900 10904 10907 10912 10918 10924 10930 10935 10941 10947 10954 10959 10964 10967 10970 10977 10982 10987 10991 10995 11000 11004 11008 11012 11012 11015 11016 11015 11018 11021 11020 11021 11022 11024 11025 11026 11028 11029 11030 11031 11032 11032 11032 11033 11032 11032 11032 11031 11031 11030 11029 11028 11026
10901 10899 10897 10894 10892 10889 10887 10884 10881 10878 10875 10872 10869 10866 10864 10861 10859 10857 10854 10852 10851 10850 10850 10850 10851 10852 10854 10856 10862 10867 10870 10877 10882 10883 10887 10892 10896 10901 10905 10911 10917 10924 10930 10936 10943 10949 10954 10958 10961 10967 10973 10978 10983 10987 10992 10997 11002 11006 11008 11010 11013 11014 11014 11017 11018 11018 11019 11020 11023 11024 11024 11026 11028 11029 11030 11031 11032 11032 11032 11032 11032 11032 11031 11031 11031 11030 11029 11028
10896 10894 10891 10889 10886 10883 10880 10877 10874 10870 10867 10863 10860 10857 10854 10851 10848 10844 10841 10838 10836 10835 10835 10836 10836 10838 10842 10845 10850 10854 10860 10867 10871 10874 10880 10885 10889 10893 10898 10904 10911 10918 10924 10931 10937 10943 10948 10952 10957 10962 10967 10972 10978 10983 10988 10993 10999 11003 11005 11007 11010 11011 11012 11015 11016 11016 11017 11020 11022 11023 11023 11025 11027 11028 11029 11031 11031 11031 11032 11032 11032 11032 11032 11032 11031 11031 11030 11029
10891 10888 10885 10883 10880 10877 10873 10870 10866 10862 10859 10855 10851 10847 10843 10839 10835 10830 10826 10821 10819 10818 10818 10819 10821 10824 10828 10833 10838 10842 10848 10854 10860 10866 10872 10877 10882 10885 10890 10896 10904 10912 10918 10924 10931 10936 10940 10945 10950 10955 10961 10968 10973 10979 10985 10989 10994 10999 11002 11005 11007 11007 11009 11012 11014 11015 11016 11020 11021 11021 11022 11023 11025 11026 11028 11029 11030 11031 11031 11031 11032 11032 11032 11032 11032 11031 11031 11030
10886 10883 10880 10877 10873 10870 10866 10863 10858 10854 10850 10846 10841 10837 10832 10827 10821 10815 10809 10804 10800 10799 10799 10801 10804 10809 10814 10819 10824 10829 10836 10844 10851 10857 10863 10869 10874 10878 10883 10890 10897 10905 10911 10917 10923 10928 10933 10938 10943 10950 10957 10963 10968 10975 10981 10985 10990 10994 10997 11000 11002 11003 11006 11009 11012 11014 11016 11018 11020 11020 11021 11022 11023 11025 11027 11028 11029 11030 11030 11031 11032 11032 11032 11032 11032 11032 11031 11031
10880 10877 10874 10870 10867 10864 10859 10855 10851 10846 10841 10836 10831 10826 10820 10814 10807 10800 10792 10785 10782 10781 10781 10784 10788 10794 10799 10805 10811 10817 10825 10834 10841 10847 10854 10861 10866 10871 10876 10882 10890 10897 10904 10909 10915 10922 10928 10932 10938 10946 10954 10958 10965 10972 10977 10981 10986 10988 10991 10994 10998 11001 11003 11007 11011 11013 11014 11016 11018 11019 11020 11021 11022 11024 11025 11027 11028 11029 11030 11031 11032 11032 11032 11032 11032 11032 11032 11031
10875 10871 10868 10864 10861 10857 10853 10848 10843 10838 10832 10827 10821 10815 10808 10801 10792 10783 10775 10768 10766 10765 10766 10768 10773 10779 10785 10791 10798 10806 10814 10823 10830 10837 10845 10853 10859 10864 10868 10874 10882 10889 10896 10902 10909 10917 10922 10927 10934 10942 10948 10953 10960 10967 10972 10976 10979 10983 10986 10990 10995 10999 11001 11004 11008 11009 11010 11013 11016 11017 11019 11020 11021 11022 11024 11025 11026 11027 11029 11030 11031 11032 11032 11032 11032 11033 11033 11032
10869 10866 10862 10858 10854 10850 10846 10840 10835 10830 10823 10817 10811 10804 10796 10788 10778 10768 10760 10755 10752 10752 10753 10755 10759 10765 10771 10778 10786 10794 10803 10812 10820 10829 10837 10844 10850 10855 10860 10867 10874 10881 10888 10896 10904 10911 10916 10923 10929 10936 10943 10950 10957 10962 10966 10970 10974 10979 10983 10988 10992 10995 10998 11002 11005 11006 11007 11010 11013 11016 11017 11018 11020 11021 11022 11024 11025 11026 11028 11029 11031 11031 11032 11032 11033 11033 11033 11032
10863 10860 10856 10852 10848 10843 10838 10833 10828 10822 10815 10808 10801 10793 10785 10775 10764 10755 10749 10745 10742 10742 10743 10744 10748 10753 10758 10765 10774 10783 10792 10801 10810 10819 10827 10835 10842 10847 10853 10859 10866 10874 10881 10889 10897 10904 10911 10917 10924 10932 10940 10947 10952 10957 10960 10965 10971 10976 10981 10985 10987 10991 10995 10999 11002 11003 11005 11009 11012 11014 11015 11016 11018 11018 11020 11022 11023 11025 11027 11029 11030 11031 11031 11032 11033 11033 11033 11033
10857 10854 10850 10846 10842 10837 10832 10826 10820 10814 10807 10800 10792 10783 10774 10763 10753 10745 10740 10737 10734 10734 10734 10736 10739 10743 10748 10755 10762 10771 10781 10790 10800 10809 10818 10826 10832 10839 10845 10851 10858 10867 10874 10883 10891 10898 10904 10911 10919 10927 10933 10938 10944 10950 10955 10961 10966 10972 10977 10981 10982 10986 10991 10995 10999 11001 11003 11007 11010 11012 11013 11014 11015 11016 11018 11020 11021 11023 11025 11028 11030 11031 11031 11032 11033 11033 11034 11034
10852 10848 10845 10840 10836 10831 10825 10820 10814 10807 10800 10792 10784 10775 10764 10753 10744 10737 10733 10730 10728 10728 10728 10730 10732 10734 10739 10745 10752 10761 10770 10780 10790 10799 10807 10815 10823 10830 10836 10843 10851 10859 10867 10876 10884 10892 10899 10906 10913 10918 10924 10930 10936 10942 10950 10956 10961 10966 10972 10975 10978 10983 10987 10991 10995 10998 11001 11004 11006 11009 11010 11012 11013 11014 11016 11017 11019 11022 11025 11027 11029 11030 11031 11031 11032 11033 11034 11034
10847 10843 10839 10835 10830 10825 10820 10814 10807 10800 10793 10785 10776 10767 10756 10746 10737 10732 10727 10725 10723 10722 10723 10724 10726 10728 10732 10737 10744 10752 10761 10770 10780 10788 10796 10805 10813 10821 10829 10837 10844 10851 10861 10870 10878 10886 10893 10900 10904 10908 10916 10924 10931 10938 10944 10950 10956 10961 10966 10971 10975 10978 10982 10986 10990 10995 10997 10999 11002 11005 11008 11010 11011 11013 11014 11016 11019 11022 11024 11025 11027 11028 11029 11030 11032 11033 11033 11034
10842 10838 10834 10830 10825 10820 10814 10808 10801 10794 10786 10778 10769 10759 10749 10740 10733 10728 10724 10721 10719 10718 10718 10719 10721 10723 10726 10731 10737 10744 10752 10762 10770 10778 10788 10796 10805 10815 10824 10831 10836 10845 10856 10864 10871 10877 10885 10891 10893 10899 10911 10920 10927 10932 10937 10944 10952 10957 10961 10965 10969 10973 10978 10982 10986 10991 10993 10995 10998 11001 11005 11008 11010 11012 11013 11016 11019 11021 11022 11023 11024 11026 11028 11029 11031 11032 11032 11033
10837 10834 10830 10825 10820 10815 10809 10802 10796 10788 10780 10772 10763 10753 10743 10735 10730 10725 10721 10718 10716 10715 10715 10716 10717 10719 10721 10725 10731 10738 10746 10754 10762 10771 10780 10789 10800 10808 10812 10818 10828 10840 10850 10856 10862 10869 10876 10879 10882 10893 10906 10913 10918 10924 10931 10940 10946 10951 10955 10957 10962 10968 10973 10977 10982 10987 10990 10992 10995 10999 11003 11006 11009 11011 11012 11015 11017 11018 11019 11020 11022 11024 11026 11028 11030 11031 11032 11033
10833 10829 10826 10821 10816 10810 10804 10798 10791 10783 10775 10766 10757 10747 10738 10731 10726 10722 10719 10716 10714 10713 10713 10713 10714 10715 10717 10721 10726 10733 10740 10747 10756 10764 10774 10784 10792 10796 10803 10815 10826 10834 10840 10845 10853 10862 10867 10871 10879 10893 10901 10904 10909 10917 10926 10934 10939 10944 10949 10953 10959 10964 10967 10972 10978 10983 10987 10989 10991 10995 11001 11004 11007 11009 11010 11012 11014 11015 11017 11018 11020 11023 11025 11027 11029 11030 11031 11033
10829 10826 10822 10818 10812 10806 10800 10793 10786 10778 10770 10761 10752 10743 10734 10727 10723 10720 10717 10715 10713 10711 10710 10711 10711 10712 10715 10718 10722 10728 10734 10742 10750 10758 10767 10776 10784 10793 10804 10812 10818 10824 10830 10838 10847 10854 10859 10868 10880 10889 10892 10897 10905 10912 10920 10926 10932 10939 10945 10951 10957 10959 10964 10970 10974 10978 10981 10983 10987 10992 10997 11000 11003 11006 11008 11010 11011 11013 11014 11016 11018 11021 11023 11026 11028 11029 11031 11032
10825 10822 10818 10814 10809 10803 10796 10789 10782 10775 10766 10758 10749 10740 10731 10725 10721 10718 10715 10713 10712 10710 10709 10709 10710 10711 10712 10715 10719 10723 10730 10737 10745 10752 10761 10769 10778 10788 10795 10800 10808 10818 10827 10837 10844 10848 10857 10869 10875 10878 10883 10893 10901 10906 10912 10918 10925 10934 10942 10947 10951 10954 10961 10966 10970 10974 10976 10978 10983 10988 10992 10995 10998 11002 11006 11008 11010 11011 11012 11014 11016 11018 11022 11024 11026 11028 11030 11031
10822 10818 10815 10811 10806 10800 10793 10786 10779 10771 10763 10755 10746 10737 10729 10723 10719 10716 10714 10712 10711 10709 10708 10708 10708 10709 10711 10713 10716 10720 10726 10733 10740 10749 10757 10764 10772 10779 10784 10792 10804 10813 10821 10829 10833 10842 10856 10862 10862 10866 10877 10888 10894 10898 10905 10911 10919 10930 10936 10940 10946 10952 10957 10961 10965 10968 10971 10975 10980 10984 10988 10992 10995 10998 11002 11006 11007 11008 11010 11012 11014 11016 11020 11022 11024 11026 11028 11030
10818 10815 10811 10807 10803 10797 10790 10784 10776 10769 10761 10753 10744 10735 10727 10722 10718 10715 10713 10711 10710 10709 10708 10708 10708 10708 10709 10711 10713 10717 10722 10728 10736 10745 10752 10759 10767 10774 10782 10791 10801 10809 10815 10819 10826 10838 10846 10845 10850 10860 10870 10879 10884 10891 10900 10906 10916 10926 10929 10934 10942 10947 10951 10956 10960 10962 10967 10972 10977 10981 10986 10989 10992 10995 10998 11001 11003 11005 11007 11009 11011 11013 11017 11019 11022 11024 11026 11028
10815 10812 10808 10804 10800 10794 10788 10781 10774 10767 10760 10752 10743 10734 10726 10720 10717 10714 10712 10710 10709 10708 10708 10707 10707 10708 10708 10709 10711 10714 10718 10724 10731 10739 10746 10755 10762 10769 10778 10788 10798 10806 10809 10812 10822 10834 10839 10843 10853 10860 10866 10873 10878 10886 10896 10904 10914 10919 10921 10928 10934 10939 10947 10953 10958 10963 10968 10972 10974 10979 10983 10985 10988 10991 10994 10997 10999 11002 11004 11005 11008 11011 11014 11017 11019 11021 11023 11026
10812 10809 10805 10801 10797 10791 10786 10779 10773 10766 10759 10751 10742 10734 10725 10719 10716 10713 10711 10710 10709 10708 10707 10707 10707 10707 10707 10708 10709 10711 10715 10720 10726 10733 10740 10747 10754 10764 10774 10783 10791 10796 10799 10806 10819 10832 10840 10846 10851 10855 10862 10869 10874 10884 10894 10900 10907 10909 10914 10923 10927 10935 10945 10950 10956 10961 10966 10968 10971 10976 10981 10982 10985 10989 10991 10993 10996 10999 11001 11002 11005 11008 11012 11014 11016 11018 11021 11023
10809 10806 10802 10799 10794 10789 10783 10777 10771 10765 10758 10750 10742 10733 10725 10718 10714 10712 10710 10709 10708 10707 10707 10706 10706 10707 10707 10707 10708 10710 10713 10716 10721 10726 10733 10741 10749 10759 10768 10774 10780 10783 10789 10800 10814 10826 10830 10832 10837 10844 10855 10862 10871 10883 10890 10895 10901 10904 10911 10918 10922 10932 10938 10943 10951 10956 10959 10963 10967 10974 10977 10979 10984 10987 10988 10990 10994 10996 10997 10999 11002 11006 11009 11012 11014 11016 11018 11020
10806 10803 10799 10796 10792 10787 10781 10775 10769 10763 10757 10749 10741 10733 10725 10718 10713 10711 10709 10708 10707 10707 10706 10706 10705 10706 10706 10707 10707 10709 10711 10713 10716 10721 10729 10737 10745 10754 10760 10765 10772 10778 10785 10794 10806 10815 10818 10821 10829 10838 10847 10855 10865 10876 10880 10886 10893 10899 10906 10912 10918 10926 10932 10939 10947 10949 10952 10957 10962 10969 10972 10975 10982 10985 10986 10988 10990 10992 10995 10997 11000 11003 11006 11009 11011 11013 11016 11019
10803 10800 10797 10793 10789 10784 10779 10773 10767 10761 10755 10748 10741 10733 10726 10718 10713 10710 10708 10707 10707 10706 10706 10705 10704 10704 10704 10705 10706 10707 10708 10710 10713 10717 10725 10732 10739 10747 10753 10761 10768 10775 10782 10790 10800 10805 10808 10814 10825 10835 10842 10849 10858 10864 10866 10873 10883 10890 10898 10905 10912 10920 10926 10934 10940 10941 10946 10950 10955 10962 10965 10971 10978 10981 10982 10984 10986 10989 10992 10995 10997 11001 11004 11006 11008 11010 11013 11016
10800 10797 10794 10790 10786 10782 10777 10771 10765 10759 10753 10747 10740 10733 10725 10718 10713 10710 10707 10706 10705 10705 10705 10704 10702 10702 10702 10703 10704 10705 10705 10707 10710 10714 10719 10725 10730 10736 10744 10752 10759 10765 10772 10782 10791 10798 10802 10809 10818 10826 10832 10839 10846 10851 10858 10870 10879 10885 10891 10899 10907 10913 10919 10925 10930 10933 10939 10945 10951 10956 10959 10966 10972 10972 10973 10976 10980 10984 10988 10992 10994 10998 11001 11003 11005 11007 11010 11013
10797 10794 10791 10787 10783 10779 10775 10769 10763 10757 10752 10746 10739 10732 10725 10718 10712 10709 10706 10705 10704 10703 10703 10702 10700 10699 10699 10700 10700 10700 10701 10704 10706 10709 10712 10715 10719 10726 10735 10742 10748 10755 10763 10771 10780 10790 10797 10803 10810 10818 10825 10832 10837 10843 10854 10865 10871 10876 10885 10894 10900 10905 10910 10916 10921 10926 10933 10940 10946 10948 10953 10960 10963 10963 10966 10970 10975 10979 10984 10989 10991 10993 10997 10999 11001 11004 11007 11010
10795 10791 10788 10784 10781 10777 10773 10767 10761 10755 10750 10744 10738 10731 10725 10719 10713 10708 10705 10704 10702 10700 10699 10698 10696 10695 10695 10695 10695 10695 10697 10700 10701 10703 10705 10708 10713 10721 10731 10738 10745 10753 10760 10768 10776 10784 10789 10792 10803 10816 10823 10828 10833 10841 10853 10858 10861 10869 10879 10886 10892 10898 10906 10913 10917 10922 10929 10935 10939 10941 10948 10953 10955 10958 10962 10965 10970 10975 10980 10984 10986 10988 10991 10994 10997 11000 11004 11008
10792 10789 10785 10781 10778 10774 10770 10765 10760 10753 10748 10742 10737 10731 10725 10719 10713 10708 10704 10702 10700 10697 10695 10694 10693 10691 10690 10690 10690 10691 10692 10694 10696 10697 10700 10704 10710 10718 10726 10733 10742 10750 10759 10768 10776 10784 10786 10791 10805 10813 10816 10822 10829 10837 10847 10851 10857 10868 10874 10879 10886 10893 10902 10910 10914 10919 10924 10929 10932 10936 10942 10946 10948 10952 10955 10959 10965 10970 10975 10980 10982 10984 10988 10991 10994 10997 11002 11005
10789 10786 10782 10779 10775 10771 10767 10763 10758 10752 10746 10740 10735 10730 10725 10719 10713 10707 10702 10699 10697 10695 10692 10689 10688 10687 10686 10685 10686 10687 10687 10689 10691 10693 10696 10700 10706 10714 10721 10728 10735 10742 10751 10758 10768 10779 10783 10790 10804 10807 10809 10818 10824 10831 10841 10846 10854 10865 10870 10876 10883 10889 10898 10904 10908 10912 10916 10922 10927 10930 10934 10939 10943 10946 10947 10953 10960 10964 10970 10975 10978 10982 10986 10988 10990 10993 10998 11002
10786 10783 10779 10776 10772 10768 10764 10760 10755 10750 10745 10740 10735 10729 10724 10718 10712 10706 10701 10698 10695 10693 10690 10687 10684 10682 10681 10680 10680 10682 10682 10683 10685 10688 10692 10696 10701 10709 10716 10723 10729 10735 10742 10748 10761 10774 10777 10783 10796 10800 10804 10813 10818 10828 10839 10842 10849 10858 10864 10872 10879 10885 10893 10899 10901 10906 10911 10916 10921 10925 10928 10934 10939 10941 10943 10949 10955 10959 10963 10969 10974 10979 10983 10985 10986 10989 10993 10999
10783 10780 10776 10773 10769 10765 10761 10757 10753 10748 10743 10738 10733 10728 10722 10717 10711 10706 10700 10696 10693 10691 10689 10685 10681 10678 10677 10676 10675 10677 10677 10678 10680 10683 10686 10691 10697 10704 10710 10717 10723 10729 10737 10744 10756 10765 10768 10775 10787 10794 10801 10809 10815 10823 10830 10832 10840 10850 10857 10864 10869 10874 10882 10889 10894 10900 10906 10910 10915 10918 10921 10926 10932 10936 10939 10944 10949 10953 10957 10964 10970 10974 10977 10979 10982 10985 10988 10993
10780 10777 10773 10770 10766 10762 10758 10754 10750 10746 10741 10736 10731 10726 10720 10715 10710 10705 10700 10695 10692 10689 10687 10684 10680 10676 10674 10673 10671 10671 10672 10673 10675 10678 10681 10685 10691 10698 10704 10710 10717 10724 10732 10740 10748 10757 10761 10768 10781 10790 10797 10802 10807 10812 10818 10822 10831 10841 10849 10853 10858 10865 10874 10881 10887 10894 10899 10904 10908 10911 10913 10919 10925 10928 10931 10935 10941 10946 10952 10960 10966 10968 10970 10974 10977 10980 10984 10988
10777 10773 10770 10767 10763 10759 10755 10752 10748 10744 10739 10734 10729 10724 10719 10713 10708 10703 10698 10694 10690 10687 10684 10681 10678 10674 10671 10669 10668 10667 10667 10668 10670 10673 10677 10680 10686 10693 10699 10704 10711 10719 10727 10734 10742 10751 10755 10761 10775 10785 10788 10790 10796 10803 10808 10815 10825 10837 10844 10847 10854 10863 10870 10875 10880 10884 10889 10893 10898 10901 10906 10913 10918 10919 10922 10928 10934 10940 10948 10957 10961 10961 10965 10970 10972 10975 10979 10982
10774 10771 10767 10764 10761 10757 10752 10749 10745 10741 10737 10732 10727 10723 10717 10712 10707 10702 10697 10693 10689 10686 10682 10679 10676 10672 10668 10665 10665 10663 10663 10663 10665 10668 10672 10675 10681 10687 10693 10699 10706 10714 10721 10727 10735 10744 10748 10755 10767 10775 10777 10781 10791 10799 10804 10813 10825 10834 10838 10844 10852 10859 10863 10868 10871 10874 10881 10885 10887 10892 10898 10905 10909 10911 10917 10925 10930 10937 10945 10952 10954 10955 10961 10964 10966 10970 10974 10978
10771 10768 10764 10761 10758 10754 10750 10746 10742 10738 10735 10730 10726 10721 10716 10711 10706 10701 10696 10692 10687 10683 10680 10676 10673 10669 10665 10662 10661 10660 10659 10659 10660 10663 10666 10671 10675 10681 10686 10693 10700 10706 10711 10717 10727 10735 10741 10749 10758 10765 10769 10774 10783 10792 10799 10810 10820 10826 10832 10840 10845 10847 10852 10858 10862 10868 10874 10877 10882 10890 10894 10899 10904 10907 10914 10922 10928 10933 10940 10945 10947 10950 10956 10958 10960 10965 10970 10974
10767 10764 10761 10758 10755 10751 10747 10743 10739 10736 10732 10728 10723 10719 10715 10710 10705 10700 10695 10690 10686 10681 10677 10674 10670 10667 10663 10660 10658 10656 10655 10655 10656 10658 10661 10665 10669 10675 10680 10687 10692 10696 10702 10712 10722 10729 10736 10744 10751 10758 10763 10768 10779 10788 10795 10803 10812 10817 10824 10829 10832 10837 10845 10851 10857 10863 10867 10873 10881 10886 10888 10893 10900 10905 10913 10921 10925 10928 10933 10937 10940 10944 10948 10950 10953 10959 10965 10970
10764 10761 10758 10755 10752 10748 10744 10740 10736 10732 10729 10725 10721 10717 10713 10709 10704 10699 10694 10689 10684 10679 10675 10671 10667 10664 10660 10657 10655 10654 10653 10652 10652 10654 10657 10660 10664 10669 10675 10681 10685 10688 10696 10707 10717 10724 10731 10738 10744 10752 10759 10766 10777 10786 10791 10799 10806 10809 10811 10815 10823 10834 10842 10847 10853 10858 10862 10869 10873 10873 10877 10887 10896 10902 10909 10915 10918 10922 10926 10930 10934 10938 10942 10944 10948 10953 10959 10965
10761 10758 10755 10752 10749 10745 10741 10738 10734 10730 10726 10722 10719 10715 10711 10706 10702 10697 10692 10687 10682 10677 10673 10669 10665 10662 10658 10655 10652 10651 10650 10649 10649 10651 10653 10656 10660 10665 10670 10674 10677 10682 10691 10700 10708 10717 10725 10732 10739 10747 10754 10761 10771 10780 10785 10792 10798 10799 10803 10812 10822 10829 10832 10837 10842 10846 10853 10859 10862 10866 10874 10883 10892 10898 10902 10906 10910 10914 10919 10924 10929 10933 10937 10940 10942 10947 10954 10961
10757 10755 10752 10749 10746 10742 10738 10735 10731 10727 10723 10719 10716 10712 10708 10704 10700 10695 10691 10685 10680 10675 10671 10667 10663 10660 10656 10653 10650 10648 10647 10646 10646 10647 10649 10651 10655 10660 10664 10668 10671 10676 10684 10692 10700 10708 10716 10725 10733 10741 10749 10757 10766 10774 10779 10785 10791 10796 10803 10814 10819 10820 10823 10827 10829 10836 10847 10853 10856 10864 10872 10880 10892 10897 10896 10897 10902 10906 10911 10917 10923 10928 10932 10935 10938 10944 10950 10956
10754 10751 10748 10745 10742 10739 10735 10732 10728 10725 10721 10717 10713 10710 10706 10702 10697 10693 10689 10684 10678 10673 10669 10664 10660 10657 10654 10651 10648 10646 10645 10644 10643 10643 10645 10646 10649 10653 10657 10662 10666 10671 10677 10685 10693 10700 10707 10715 10725 10735 10745 10752 10760 10767 10773 10778 10785 10791 10797 10804 10808 10811 10815 10819 10824 10836 10846 10846 10849 10858 10865 10874 10887 10888 10883 10886 10892 10896 10902 10909 10916 10922 10926 10931 10937 10942 10946 10952
10751 10748 10745 10742 10739 10736 10732 10729 10725 10722 10718 10714 10710 10707 10703 10699 10695 10691 10686 10682 10677 10672 10667 10662 10658 10655 10652 10649 10646 10643 10642 10641 10640 10640 10641 10642 10643 10647 10651 10656 10661 10667 10673 10679 10686 10692 10698 10708 10719 10730 10739 10745 10753 10760 10765 10772 10778 10783 10789 10795 10800 10805 10809 10815 10824 10834 10838 10838 10844 10853 10859 10867 10874 10871 10868 10874 10882 10887 10893 10901 10908 10915 10921 10929 10935 10939 10944 10952
10747 10745 10742 10739 10736 10733 10730 10726 10723 10719 10716 10712 10708 10704 10701 10697 10692 10688 10684 10679 10675 10670 10665 10660 10656 10653 10650 10647 10644 10641 10639 10638 10637 10637 10637 10638 10639 10643 10647 10651 10657 10663 10668 10674 10679 10684 10693 10703 10714 10724 10730 10736 10743 10750 10758 10765 10770 10774 10781 10787 10794 10802 10809 10815 10821 10826 10830 10835 10842 10851 10857 10859 10859 10858 10860 10866 10873 10880 10886 10894 10902 10909 10919 10926 10932 10939 10945 10946